Year,Month,Day,Hour,Minute,Value (Times are PST for temperature in C)
2018,10,21,00,00,11.70
2018,10,21,00,01,11.80
2018,10,21,00,02,11.80
2018,10,21,00,03,11.80
2018,10,21,00,04,11.80
2018,10,21,00,05,11.70
2018,10,21,00,06,11.70
2018,10,21,00,07,11.70
2018,10,21,00,08,11.70
2018,10,21,00,09,11.70
2018,10,21,00,10,11.70
2018,10,21,00,11,11.70
2018,10,21,00,12,11.70
2018,10,21,00,13,11.70
2018,10,21,00,14,11.80
2018,10,21,00,15,11.70
2018,10,21,00,16,11.70
2018,10,21,00,17,11.50
2018,10,21,00,18,11.30
2018,10,21,00,19,11.10
2018,10,21,00,20,10.90
2018,10,21,00,21,10.80
2018,10,21,00,22,10.60
2018,10,21,00,23,10.40
2018,10,21,00,24,10.20
2018,10,21,00,25,10.10
2018,10,21,00,26,10.00
2018,10,21,00,27,10.00
2018,10,21,00,28,10.10
2018,10,21,00,29,10.10
2018,10,21,00,30,10.00
2018,10,21,00,31,10.00
2018,10,21,00,32,9.90
2018,10,21,00,33,9.80
2018,10,21,00,34,9.80
2018,10,21,00,35,9.80
2018,10,21,00,36,9.70
2018,10,21,00,37,9.70
2018,10,21,00,38,9.70
2018,10,21,00,39,9.70
2018,10,21,00,40,9.60
2018,10,21,00,41,9.60
2018,10,21,00,42,9.60
2018,10,21,00,43,9.60
2018,10,21,00,44,9.70
2018,10,21,00,45,9.80
2018,10,21,00,46,9.90
2018,10,21,00,47,10.00
2018,10,21,00,48,10.10
2018,10,21,00,49,10.20
2018,10,21,00,50,10.30
2018,10,21,00,51,10.30
2018,10,21,00,52,10.40
2018,10,21,00,53,10.40
2018,10,21,00,54,10.40
2018,10,21,00,55,10.30
2018,10,21,00,56,10.30
2018,10,21,00,57,10.20
2018,10,21,00,58,10.10
2018,10,21,00,59,10.10
2018,10,21,01,00,10.20
2018,10,21,01,01,10.20
2018,10,21,01,02,10.30
2018,10,21,01,03,10.30
2018,10,21,01,04,10.30
2018,10,21,01,05,10.30
2018,10,21,01,06,10.30
2018,10,21,01,07,10.20
2018,10,21,01,08,10.20
2018,10,21,01,09,10.20
2018,10,21,01,10,10.10
2018,10,21,01,11,10.10
2018,10,21,01,12,10.10
2018,10,21,01,13,10.10
2018,10,21,01,14,10.30
2018,10,21,01,15,10.30
2018,10,21,01,16,10.40
2018,10,21,01,17,10.50
2018,10,21,01,18,10.60
2018,10,21,01,19,10.50
2018,10,21,01,20,10.50
2018,10,21,01,21,10.40
2018,10,21,01,22,10.30
2018,10,21,01,23,10.20
2018,10,21,01,24,10.20
2018,10,21,01,25,10.20
2018,10,21,01,26,10.10
2018,10,21,01,27,10.10
2018,10,21,01,28,10.00
2018,10,21,01,29,9.90
2018,10,21,01,30,9.80
2018,10,21,01,31,9.80
2018,10,21,01,32,9.80
2018,10,21,01,33,9.70
2018,10,21,01,34,9.60
2018,10,21,01,35,9.60
2018,10,21,01,36,9.50
2018,10,21,01,37,9.40
2018,10,21,01,38,9.30
2018,10,21,01,39,9.30
2018,10,21,01,40,9.20
2018,10,21,01,41,9.20
2018,10,21,01,42,9.20
2018,10,21,01,43,9.20
2018,10,21,01,44,9.20
2018,10,21,01,45,9.20
2018,10,21,01,46,9.10
2018,10,21,01,47,9.20
2018,10,21,01,48,9.20
2018,10,21,01,49,9.20
2018,10,21,01,50,9.10
2018,10,21,01,51,9.10
2018,10,21,01,52,9.10
2018,10,21,01,53,9.10
2018,10,21,01,54,9.10
2018,10,21,01,55,9.10
2018,10,21,01,56,9.10
2018,10,21,01,57,9.10
2018,10,21,01,58,9.10
2018,10,21,01,59,9.10
2018,10,21,02,00,9.10
2018,10,21,02,01,9.10
2018,10,21,02,02,9.10
2018,10,21,02,03,9.10
2018,10,21,02,04,9.00
2018,10,21,02,05,9.00
2018,10,21,02,06,9.00
2018,10,21,02,07,8.90
2018,10,21,02,08,9.00
2018,10,21,02,09,9.00
2018,10,21,02,10,8.90
2018,10,21,02,11,9.00
2018,10,21,02,12,8.90
2018,10,21,02,13,8.90
2018,10,21,02,14,8.80
2018,10,21,02,15,8.60
2018,10,21,02,16,8.50
2018,10,21,02,17,8.40
2018,10,21,02,18,8.30
2018,10,21,02,19,8.20
2018,10,21,02,20,8.10
2018,10,21,02,21,8.00
2018,10,21,02,22,7.90
2018,10,21,02,23,7.90
2018,10,21,02,24,8.00
2018,10,21,02,25,8.10
2018,10,21,02,26,8.10
2018,10,21,02,27,8.20
2018,10,21,02,28,8.30
2018,10,21,02,29,8.40
2018,10,21,02,30,8.50
2018,10,21,02,31,8.60
2018,10,21,02,32,8.60
2018,10,21,02,33,8.50
2018,10,21,02,34,8.50
2018,10,21,02,35,8.40
2018,10,21,02,36,8.30
2018,10,21,02,37,8.20
2018,10,21,02,38,8.20
2018,10,21,02,39,8.10
2018,10,21,02,40,8.10
2018,10,21,02,41,8.10
2018,10,21,02,42,8.10
2018,10,21,02,43,8.10
2018,10,21,02,44,8.20
2018,10,21,02,45,8.30
2018,10,21,02,46,8.50
2018,10,21,02,47,8.70
2018,10,21,02,48,8.90
2018,10,21,02,49,9.00
2018,10,21,02,50,9.10
2018,10,21,02,51,9.20
2018,10,21,02,52,9.30
2018,10,21,02,53,9.40
2018,10,21,02,54,9.40
2018,10,21,02,55,9.40
2018,10,21,02,56,9.40
2018,10,21,02,57,9.40
2018,10,21,02,58,9.40
2018,10,21,02,59,9.40
2018,10,21,03,00,9.40
2018,10,21,03,01,9.50
2018,10,21,03,02,9.50
2018,10,21,03,03,9.60
2018,10,21,03,04,9.60
2018,10,21,03,05,9.60
2018,10,21,03,06,9.50
2018,10,21,03,07,9.30
2018,10,21,03,08,9.10
2018,10,21,03,09,8.90
2018,10,21,03,10,8.80
2018,10,21,03,11,8.70
2018,10,21,03,12,8.60
2018,10,21,03,13,8.70
2018,10,21,03,14,8.70
2018,10,21,03,15,8.80
2018,10,21,03,16,9.00
2018,10,21,03,17,9.00
2018,10,21,03,18,9.10
2018,10,21,03,19,9.00
2018,10,21,03,20,8.90
2018,10,21,03,21,8.80
2018,10,21,03,22,8.80
2018,10,21,03,23,8.80
2018,10,21,03,24,8.80
2018,10,21,03,25,8.70
2018,10,21,03,26,8.70
2018,10,21,03,27,8.80
2018,10,21,03,28,8.80
2018,10,21,03,29,8.90
2018,10,21,03,30,9.00
2018,10,21,03,31,9.10
2018,10,21,03,32,9.20
2018,10,21,03,33,9.30
2018,10,21,03,34,9.40
2018,10,21,03,35,9.40
2018,10,21,03,36,9.40
2018,10,21,03,37,9.30
2018,10,21,03,38,9.20
2018,10,21,03,39,9.00
2018,10,21,03,40,8.70
2018,10,21,03,41,8.50
2018,10,21,03,42,8.20
2018,10,21,03,43,8.00
2018,10,21,03,44,7.80
2018,10,21,03,45,7.70
2018,10,21,03,46,7.50
2018,10,21,03,47,7.40
2018,10,21,03,48,7.30
2018,10,21,03,49,7.20
2018,10,21,03,50,7.20
2018,10,21,03,51,7.10
2018,10,21,03,52,7.10
2018,10,21,03,53,7.10
2018,10,21,03,54,7.00
2018,10,21,03,55,7.00
2018,10,21,03,56,6.90
2018,10,21,03,57,6.80
2018,10,21,03,58,6.80
2018,10,21,03,59,6.70
2018,10,21,04,00,6.60
2018,10,21,04,01,6.50
2018,10,21,04,02,6.50
2018,10,21,04,03,6.40
2018,10,21,04,04,6.40
2018,10,21,04,05,6.30
2018,10,21,04,06,6.30
2018,10,21,04,07,6.20
2018,10,21,04,08,6.20
2018,10,21,04,09,6.20
2018,10,21,04,10,6.10
2018,10,21,04,11,6.10
2018,10,21,04,12,6.00
2018,10,21,04,13,6.00
2018,10,21,04,14,5.90
2018,10,21,04,15,5.90
2018,10,21,04,16,5.90
2018,10,21,04,17,5.90
2018,10,21,04,18,5.80
2018,10,21,04,19,5.80
2018,10,21,04,20,5.70
2018,10,21,04,21,5.70
2018,10,21,04,22,5.70
2018,10,21,04,23,5.60
2018,10,21,04,24,5.60
2018,10,21,04,25,5.60
2018,10,21,04,26,5.50
2018,10,21,04,27,5.50
2018,10,21,04,28,5.50
2018,10,21,04,29,5.40
2018,10,21,04,30,5.40
2018,10,21,04,31,5.40
2018,10,21,04,32,5.40
2018,10,21,04,33,5.40
2018,10,21,04,34,5.40
2018,10,21,04,35,5.40
2018,10,21,04,36,5.40
2018,10,21,04,37,5.40
2018,10,21,04,38,5.40
2018,10,21,04,39,5.40
2018,10,21,04,40,5.40
2018,10,21,04,41,5.40
2018,10,21,04,42,5.40
2018,10,21,04,43,5.40
2018,10,21,04,44,5.40
2018,10,21,04,45,5.40
2018,10,21,04,46,5.40
2018,10,21,04,47,5.30
2018,10,21,04,48,5.30
2018,10,21,04,49,5.30
2018,10,21,04,50,5.20
2018,10,21,04,51,5.20
2018,10,21,04,52,5.20
2018,10,21,04,53,5.10
2018,10,21,04,54,5.10
2018,10,21,04,55,5.10
2018,10,21,04,56,5.10
2018,10,21,04,57,5.10
2018,10,21,04,58,5.20
2018,10,21,04,59,5.20
2018,10,21,05,00,5.20
2018,10,21,05,01,5.10
2018,10,21,05,02,5.10
2018,10,21,05,03,5.00
2018,10,21,05,04,5.00
2018,10,21,05,05,4.90
2018,10,21,05,06,4.90
2018,10,21,05,07,4.80
2018,10,21,05,08,4.70
2018,10,21,05,09,4.70
2018,10,21,05,10,4.70
2018,10,21,05,11,4.60
2018,10,21,05,12,4.60
2018,10,21,05,13,4.60
2018,10,21,05,14,4.50
2018,10,21,05,15,4.50
2018,10,21,05,16,4.50
2018,10,21,05,17,4.50
2018,10,21,05,18,4.50
2018,10,21,05,19,4.50
2018,10,21,05,20,4.50
2018,10,21,05,21,4.50
2018,10,21,05,22,4.50
2018,10,21,05,23,4.40
2018,10,21,05,24,4.50
2018,10,21,05,25,4.50
2018,10,21,05,26,4.50
2018,10,21,05,27,4.50
2018,10,21,05,28,4.50
2018,10,21,05,29,4.60
2018,10,21,05,30,4.60
2018,10,21,05,31,4.60
2018,10,21,05,32,4.60
2018,10,21,05,33,4.60
2018,10,21,05,34,4.60
2018,10,21,05,35,4.60
2018,10,21,05,36,4.60
2018,10,21,05,37,4.60
2018,10,21,05,38,4.60
2018,10,21,05,39,4.60
2018,10,21,05,40,4.60
2018,10,21,05,41,4.60
2018,10,21,05,42,4.60
2018,10,21,05,43,4.60
2018,10,21,05,44,4.60
2018,10,21,05,45,4.60
2018,10,21,05,46,4.60
2018,10,21,05,47,4.50
2018,10,21,05,48,4.50
2018,10,21,05,49,4.40
2018,10,21,05,50,4.40
2018,10,21,05,51,4.40
2018,10,21,05,52,4.40
2018,10,21,05,53,4.30
2018,10,21,05,54,4.30
2018,10,21,05,55,4.30
2018,10,21,05,56,4.30
2018,10,21,05,57,4.30
2018,10,21,05,58,4.30
2018,10,21,05,59,4.20
2018,10,21,06,00,4.20
2018,10,21,06,01,4.20
2018,10,21,06,02,4.20
2018,10,21,06,03,4.20
2018,10,21,06,04,4.20
2018,10,21,06,05,4.20
2018,10,21,06,06,4.20
2018,10,21,06,07,4.20
2018,10,21,06,08,4.20
2018,10,21,06,09,4.20
2018,10,21,06,10,4.10
2018,10,21,06,11,4.10
2018,10,21,06,12,4.10
2018,10,21,06,13,4.00
2018,10,21,06,14,4.00
2018,10,21,06,15,4.00
2018,10,21,06,16,3.90
2018,10,21,06,17,3.90
2018,10,21,06,18,3.90
2018,10,21,06,19,3.90
2018,10,21,06,20,3.90
2018,10,21,06,21,3.90
2018,10,21,06,22,3.90
2018,10,21,06,23,3.90
2018,10,21,06,24,3.90
2018,10,21,06,25,4.00
2018,10,21,06,26,4.00
2018,10,21,06,27,4.00
2018,10,21,06,28,4.00
2018,10,21,06,29,4.10
2018,10,21,06,30,4.10
2018,10,21,06,31,4.10
2018,10,21,06,32,4.10
2018,10,21,06,33,4.10
2018,10,21,06,34,4.10
2018,10,21,06,35,4.10
2018,10,21,06,36,4.10
2018,10,21,06,37,4.20
2018,10,21,06,38,4.20
2018,10,21,06,39,4.20
2018,10,21,06,40,4.20
2018,10,21,06,41,4.20
2018,10,21,06,42,4.20
2018,10,21,06,43,4.20
2018,10,21,06,44,4.20
2018,10,21,06,45,4.20
2018,10,21,06,46,4.10
2018,10,21,06,47,4.10
2018,10,21,06,48,4.10
2018,10,21,06,49,4.00
2018,10,21,06,50,4.00
2018,10,21,06,51,3.90
2018,10,21,06,52,3.90
2018,10,21,06,53,3.90
2018,10,21,06,54,3.90
2018,10,21,06,55,4.00
2018,10,21,06,56,4.00
2018,10,21,06,57,3.90
2018,10,21,06,58,3.90
2018,10,21,06,59,3.90
2018,10,21,07,00,3.90
2018,10,21,07,01,3.80
2018,10,21,07,02,3.80
2018,10,21,07,03,3.80
2018,10,21,07,04,3.80
2018,10,21,07,05,3.80
2018,10,21,07,06,3.70
2018,10,21,07,07,3.70
2018,10,21,07,08,3.70
2018,10,21,07,09,3.70
2018,10,21,07,10,3.70
2018,10,21,07,11,3.70
2018,10,21,07,12,3.70
2018,10,21,07,13,3.70
2018,10,21,07,14,3.70
2018,10,21,07,15,3.70
2018,10,21,07,16,3.70
2018,10,21,07,17,3.70
2018,10,21,07,18,3.70
2018,10,21,07,19,3.70
2018,10,21,07,20,3.70
2018,10,21,07,21,3.70
2018,10,21,07,22,3.70
2018,10,21,07,23,3.70
2018,10,21,07,24,3.70
2018,10,21,07,25,3.70
2018,10,21,07,26,3.60
2018,10,21,07,27,3.60
2018,10,21,07,28,3.60
2018,10,21,07,29,3.60
2018,10,21,07,30,3.60
2018,10,21,07,31,3.60
2018,10,21,07,32,3.60
2018,10,21,07,33,3.60
2018,10,21,07,34,3.60
2018,10,21,07,35,3.60
2018,10,21,07,36,3.60
2018,10,21,07,37,3.60
2018,10,21,07,38,3.60
2018,10,21,07,39,3.60
2018,10,21,07,40,3.70
2018,10,21,07,41,3.70
2018,10,21,07,42,3.70
2018,10,21,07,43,3.80
2018,10,21,07,44,3.80
2018,10,21,07,45,3.80
2018,10,21,07,46,3.80
2018,10,21,07,47,3.80
2018,10,21,07,48,3.80
2018,10,21,07,49,3.70
2018,10,21,07,50,3.70
2018,10,21,07,51,3.70
2018,10,21,07,52,3.70
2018,10,21,07,53,3.70
2018,10,21,07,54,3.60
2018,10,21,07,55,3.60
2018,10,21,07,56,3.60
2018,10,21,07,57,3.60
2018,10,21,07,58,3.50
2018,10,21,07,59,3.50
2018,10,21,08,00,3.50
2018,10,21,08,01,3.50
2018,10,21,08,02,3.50
2018,10,21,08,03,3.40
2018,10,21,08,04,3.40
2018,10,21,08,05,3.40
2018,10,21,08,06,3.40
2018,10,21,08,07,3.40
2018,10,21,08,08,3.40
2018,10,21,08,09,3.40
2018,10,21,08,10,3.40
2018,10,21,08,11,3.40
2018,10,21,08,12,3.40
2018,10,21,08,13,3.40
2018,10,21,08,14,3.40
2018,10,21,08,15,3.40
2018,10,21,08,16,3.40
2018,10,21,08,17,3.40
2018,10,21,08,18,3.40
2018,10,21,08,19,3.40
2018,10,21,08,20,3.40
2018,10,21,08,21,3.40
2018,10,21,08,22,3.40
2018,10,21,08,23,3.40
2018,10,21,08,24,3.40
2018,10,21,08,25,3.40
2018,10,21,08,26,3.40
2018,10,21,08,27,3.40
2018,10,21,08,28,3.30
2018,10,21,08,29,3.30
2018,10,21,08,30,3.30
2018,10,21,08,31,3.30
2018,10,21,08,32,3.30
2018,10,21,08,33,3.30
2018,10,21,08,34,3.30
2018,10,21,08,35,3.30
2018,10,21,08,36,3.30
2018,10,21,08,37,3.30
2018,10,21,08,38,3.30
2018,10,21,08,39,3.30
2018,10,21,08,40,3.30
2018,10,21,08,41,3.30
2018,10,21,08,42,3.30
2018,10,21,08,43,3.30
2018,10,21,08,44,3.30
2018,10,21,08,45,3.30
2018,10,21,08,46,3.30
2018,10,21,08,47,3.30
2018,10,21,08,48,3.30
2018,10,21,08,49,3.30
2018,10,21,08,50,3.30
2018,10,21,08,51,3.30
2018,10,21,08,52,3.30
2018,10,21,08,53,3.30
2018,10,21,08,54,3.30
2018,10,21,08,55,3.30
2018,10,21,08,56,3.30
2018,10,21,08,57,3.30
2018,10,21,08,58,3.30
2018,10,21,08,59,3.30
2018,10,21,09,00,3.30
2018,10,21,09,01,3.30
2018,10,21,09,02,3.30
2018,10,21,09,03,3.30
2018,10,21,09,04,3.30
2018,10,21,09,05,3.30
2018,10,21,09,06,3.30
2018,10,21,09,07,3.30
2018,10,21,09,08,3.30
2018,10,21,09,09,3.20
2018,10,21,09,10,3.20
2018,10,21,09,11,3.20
2018,10,21,09,12,3.20
2018,10,21,09,13,3.20
2018,10,21,09,14,3.20
2018,10,21,09,15,3.20
2018,10,21,09,16,3.20
2018,10,21,09,17,3.20
2018,10,21,09,18,3.20
2018,10,21,09,19,3.20
2018,10,21,09,20,3.20
2018,10,21,09,21,3.20
2018,10,21,09,22,3.20
2018,10,21,09,23,3.20
2018,10,21,09,24,3.20
2018,10,21,09,25,3.20
2018,10,21,09,26,3.20
2018,10,21,09,27,3.20
2018,10,21,09,28,3.30
2018,10,21,09,29,3.30
2018,10,21,09,30,3.30
2018,10,21,09,31,3.30
2018,10,21,09,32,3.30
2018,10,21,09,33,3.30
2018,10,21,09,34,3.30
2018,10,21,09,35,3.40
2018,10,21,09,36,3.40
2018,10,21,09,37,3.40
2018,10,21,09,38,3.50
2018,10,21,09,39,3.50
2018,10,21,09,40,3.60
2018,10,21,09,41,3.70
2018,10,21,09,42,3.80
2018,10,21,09,43,3.80
2018,10,21,09,44,3.90
2018,10,21,09,45,4.00
2018,10,21,09,46,4.00
2018,10,21,09,47,4.10
2018,10,21,09,48,4.20
2018,10,21,09,49,4.20
2018,10,21,09,50,4.30
2018,10,21,09,51,4.30
2018,10,21,09,52,4.30
2018,10,21,09,53,4.40
2018,10,21,09,54,4.40
2018,10,21,09,55,4.50
2018,10,21,09,56,4.50
2018,10,21,09,57,4.50
2018,10,21,09,58,4.60
2018,10,21,09,59,4.60
2018,10,21,10,00,4.60
2018,10,21,10,01,4.60
2018,10,21,10,02,4.60
2018,10,21,10,03,4.60
2018,10,21,10,04,4.70
2018,10,21,10,05,4.70
2018,10,21,10,06,4.60
2018,10,21,10,07,4.60
2018,10,21,10,08,4.60
2018,10,21,10,09,4.60
2018,10,21,10,10,4.60
2018,10,21,10,11,4.60
2018,10,21,10,12,4.60
2018,10,21,10,13,4.60
2018,10,21,10,14,4.70
2018,10,21,10,15,4.60
2018,10,21,10,16,4.60
2018,10,21,10,17,4.70
2018,10,21,10,18,4.70
2018,10,21,10,19,4.60
2018,10,21,10,20,4.60
2018,10,21,10,21,4.60
2018,10,21,10,22,4.60
2018,10,21,10,23,4.60
2018,10,21,10,24,4.60
2018,10,21,10,25,4.60
2018,10,21,10,26,4.60
2018,10,21,10,27,4.60
2018,10,21,10,28,4.50
2018,10,21,10,29,4.50
2018,10,21,10,30,4.50
2018,10,21,10,31,4.50
2018,10,21,10,32,4.50
2018,10,21,10,33,4.50
2018,10,21,10,34,4.50
2018,10,21,10,35,4.50
2018,10,21,10,36,4.50
2018,10,21,10,37,4.50
2018,10,21,10,38,4.50
2018,10,21,10,39,4.50
2018,10,21,10,40,4.50
2018,10,21,10,41,4.50
2018,10,21,10,42,4.60
2018,10,21,10,43,4.60
2018,10,21,10,44,4.60
2018,10,21,10,45,4.60
2018,10,21,10,46,4.60
2018,10,21,10,47,4.60
2018,10,21,10,48,4.60
2018,10,21,10,49,4.60
2018,10,21,10,50,4.70
2018,10,21,10,51,4.70
2018,10,21,10,52,4.80
2018,10,21,10,53,4.80
2018,10,21,10,54,4.80
2018,10,21,10,55,4.90
2018,10,21,10,56,5.00
2018,10,21,10,57,5.00
2018,10,21,10,58,5.00
2018,10,21,10,59,5.10
2018,10,21,11,00,5.20
2018,10,21,11,01,5.20
2018,10,21,11,02,5.20
2018,10,21,11,03,5.30
2018,10,21,11,04,5.30
2018,10,21,11,05,5.40
2018,10,21,11,06,5.40
2018,10,21,11,07,5.50
2018,10,21,11,08,5.50
2018,10,21,11,09,5.60
2018,10,21,11,10,5.60
2018,10,21,11,11,5.70
2018,10,21,11,12,5.70
2018,10,21,11,13,5.80
2018,10,21,11,14,5.80
2018,10,21,11,15,5.90
2018,10,21,11,16,6.00
2018,10,21,11,17,6.10
2018,10,21,11,18,6.20
2018,10,21,11,19,6.30
2018,10,21,11,20,6.40
2018,10,21,11,21,6.60
2018,10,21,11,22,6.70
2018,10,21,11,23,6.90
2018,10,21,11,24,7.10
2018,10,21,11,25,7.30
2018,10,21,11,26,7.40
2018,10,21,11,27,7.60
2018,10,21,11,28,7.80
2018,10,21,11,29,8.00
2018,10,21,11,30,8.20
2018,10,21,11,31,8.30
2018,10,21,11,32,8.50
2018,10,21,11,33,8.60
2018,10,21,11,34,8.80
2018,10,21,11,35,8.90
2018,10,21,11,36,9.00
2018,10,21,11,37,9.10
2018,10,21,11,38,9.20
2018,10,21,11,39,9.30
2018,10,21,11,40,9.40
2018,10,21,11,41,9.60
2018,10,21,11,42,9.70
2018,10,21,11,43,9.80
2018,10,21,11,44,9.90
2018,10,21,11,45,10.10
2018,10,21,11,46,10.20
2018,10,21,11,47,10.30
2018,10,21,11,48,10.40
2018,10,21,11,49,10.50
2018,10,21,11,50,10.60
2018,10,21,11,51,10.70
2018,10,21,11,52,10.80
2018,10,21,11,53,11.00
2018,10,21,11,54,11.10
2018,10,21,11,55,11.30
2018,10,21,11,56,11.50
2018,10,21,11,57,11.60
2018,10,21,11,58,11.70
2018,10,21,11,59,11.80
2018,10,21,12,00,11.90
2018,10,21,12,01,11.90
2018,10,21,12,02,12.00
2018,10,21,12,03,12.00
2018,10,21,12,04,12.10
2018,10,21,12,05,12.10
2018,10,21,12,06,12.20
2018,10,21,12,07,12.20
2018,10,21,12,08,12.30
2018,10,21,12,09,12.30
2018,10,21,12,10,12.30
2018,10,21,12,11,12.40
2018,10,21,12,12,12.40
2018,10,21,12,13,12.50
2018,10,21,12,14,12.50
2018,10,21,12,15,12.60
2018,10,21,12,16,12.60
2018,10,21,12,17,12.70
2018,10,21,12,18,12.70
2018,10,21,12,19,12.70
2018,10,21,12,20,12.80
2018,10,21,12,21,12.80
2018,10,21,12,22,12.90
2018,10,21,12,23,12.90
2018,10,21,12,24,13.00
2018,10,21,12,25,13.10
2018,10,21,12,26,13.10
2018,10,21,12,27,13.10
2018,10,21,12,28,13.10
2018,10,21,12,29,13.10
2018,10,21,12,30,13.10
2018,10,21,12,31,13.00
2018,10,21,12,32,13.00
2018,10,21,12,33,12.90
2018,10,21,12,34,12.90
2018,10,21,12,35,12.90
2018,10,21,12,36,12.80
2018,10,21,12,37,12.80
2018,10,21,12,38,12.80
2018,10,21,12,39,12.80
2018,10,21,12,40,12.80
2018,10,21,12,41,12.80
2018,10,21,12,42,12.80
2018,10,21,12,43,12.80
2018,10,21,12,44,12.80
2018,10,21,12,45,12.80
2018,10,21,12,46,12.90
2018,10,21,12,47,13.00
2018,10,21,12,48,13.00
2018,10,21,12,49,13.00
2018,10,21,12,50,13.00
2018,10,21,12,51,12.90
2018,10,21,12,52,12.90
2018,10,21,12,53,12.90
2018,10,21,12,54,12.80
2018,10,21,12,55,12.80
2018,10,21,12,56,12.80
2018,10,21,12,57,12.70
2018,10,21,12,58,12.70
2018,10,21,12,59,12.80
2018,10,21,13,00,12.80
2018,10,21,13,01,12.90
2018,10,21,13,02,12.90
2018,10,21,13,03,12.90
2018,10,21,13,04,13.00
2018,10,21,13,05,13.00
2018,10,21,13,06,13.10
2018,10,21,13,07,13.20
2018,10,21,13,08,13.30
2018,10,21,13,09,13.50
2018,10,21,13,10,13.60
2018,10,21,13,11,13.70
2018,10,21,13,12,13.70
2018,10,21,13,13,13.80
2018,10,21,13,14,13.80
2018,10,21,13,15,13.90
2018,10,21,13,16,13.90
2018,10,21,13,17,13.90
2018,10,21,13,18,13.80
2018,10,21,13,19,13.80
2018,10,21,13,20,13.70
2018,10,21,13,21,13.70
2018,10,21,13,22,13.60
2018,10,21,13,23,13.60
2018,10,21,13,24,13.50
2018,10,21,13,25,13.50
2018,10,21,13,26,13.40
2018,10,21,13,27,13.50
2018,10,21,13,28,13.50
2018,10,21,13,29,13.60
2018,10,21,13,30,13.60
2018,10,21,13,31,13.60
2018,10,21,13,32,13.60
2018,10,21,13,33,13.50
2018,10,21,13,34,13.50
2018,10,21,13,35,13.40
2018,10,21,13,36,13.40
2018,10,21,13,37,13.40
2018,10,21,13,38,13.30
2018,10,21,13,39,13.30
2018,10,21,13,40,13.30
2018,10,21,13,41,13.30
2018,10,21,13,42,13.30
2018,10,21,13,43,13.30
2018,10,21,13,44,13.40
2018,10,21,13,45,13.50
2018,10,21,13,46,13.60
2018,10,21,13,47,13.70
2018,10,21,13,48,13.80
2018,10,21,13,49,13.80
2018,10,21,13,50,13.90
2018,10,21,13,51,14.00
2018,10,21,13,52,14.10
2018,10,21,13,53,14.20
2018,10,21,13,54,14.30
2018,10,21,13,55,14.40
2018,10,21,13,56,14.50
2018,10,21,13,57,14.50
2018,10,21,13,58,14.60
2018,10,21,13,59,14.70
2018,10,21,14,00,14.70
2018,10,21,14,01,14.70
2018,10,21,14,02,14.60
2018,10,21,14,03,14.60
2018,10,21,14,04,14.50
2018,10,21,14,05,14.40
2018,10,21,14,06,14.40
2018,10,21,14,07,14.30
2018,10,21,14,08,14.30
2018,10,21,14,09,14.30
2018,10,21,14,10,14.30
2018,10,21,14,11,14.40
2018,10,21,14,12,14.40
2018,10,21,14,13,14.50
2018,10,21,14,14,14.50
2018,10,21,14,15,14.60
2018,10,21,14,16,14.60
2018,10,21,14,17,14.70
2018,10,21,14,18,14.80
2018,10,21,14,19,14.90
2018,10,21,14,20,15.00
2018,10,21,14,21,15.20
2018,10,21,14,22,15.30
2018,10,21,14,23,15.40
2018,10,21,14,24,15.50
2018,10,21,14,25,15.70
2018,10,21,14,26,15.80
2018,10,21,14,27,15.90
2018,10,21,14,28,16.00
2018,10,21,14,29,16.10
2018,10,21,14,30,16.20
2018,10,21,14,31,16.30
2018,10,21,14,32,16.30
2018,10,21,14,33,16.30
2018,10,21,14,34,16.20
2018,10,21,14,35,16.20
2018,10,21,14,36,16.10
2018,10,21,14,37,16.00
2018,10,21,14,38,15.90
2018,10,21,14,39,15.90
2018,10,21,14,40,15.80
2018,10,21,14,41,15.80
2018,10,21,14,42,15.80
2018,10,21,14,43,15.80
2018,10,21,14,44,15.80
2018,10,21,14,45,15.80
2018,10,21,14,46,15.80
2018,10,21,14,47,15.80
2018,10,21,14,48,15.80
2018,10,21,14,49,15.90
2018,10,21,14,50,15.90
2018,10,21,14,51,15.90
2018,10,21,14,52,16.00
2018,10,21,14,53,16.00
2018,10,21,14,54,16.10
2018,10,21,14,55,16.20
2018,10,21,14,56,16.30
2018,10,21,14,57,16.40
2018,10,21,14,58,16.50
2018,10,21,14,59,16.50
2018,10,21,15,00,16.60
2018,10,21,15,01,16.70
2018,10,21,15,02,16.70
2018,10,21,15,03,16.80
2018,10,21,15,04,16.80
2018,10,21,15,05,16.80
2018,10,21,15,06,16.80
2018,10,21,15,07,16.80
2018,10,21,15,08,16.70
2018,10,21,15,09,16.70
2018,10,21,15,10,16.60
2018,10,21,15,11,16.50
2018,10,21,15,12,16.50
2018,10,21,15,13,16.40
2018,10,21,15,14,16.30
2018,10,21,15,15,16.20
2018,10,21,15,16,16.10
2018,10,21,15,17,16.10
2018,10,21,15,18,16.00
2018,10,21,15,19,16.00
2018,10,21,15,20,15.90
2018,10,21,15,21,15.90
2018,10,21,15,22,15.80
2018,10,21,15,23,15.80
2018,10,21,15,24,15.80
2018,10,21,15,25,15.80
2018,10,21,15,26,15.80
2018,10,21,15,27,15.80
2018,10,21,15,28,15.80
2018,10,21,15,29,15.90
2018,10,21,15,30,15.90
2018,10,21,15,31,15.90
2018,10,21,15,32,15.90
2018,10,21,15,33,16.00
2018,10,21,15,34,16.00
2018,10,21,15,35,16.10
2018,10,21,15,36,16.10
2018,10,21,15,37,16.10
2018,10,21,15,38,16.10
2018,10,21,15,39,16.20
2018,10,21,15,40,16.20
2018,10,21,15,41,16.20
2018,10,21,15,42,16.10
2018,10,21,15,43,16.10
2018,10,21,15,44,16.10
2018,10,21,15,45,16.10
2018,10,21,15,46,16.20
2018,10,21,15,47,16.20
2018,10,21,15,48,16.10
2018,10,21,15,49,16.10
2018,10,21,15,50,16.10
2018,10,21,15,51,16.10
2018,10,21,15,52,16.10
2018,10,21,15,53,16.00
2018,10,21,15,54,16.00
2018,10,21,15,55,16.00
2018,10,21,15,56,15.90
2018,10,21,15,57,15.90
2018,10,21,15,58,15.90
2018,10,21,15,59,15.90
2018,10,21,16,00,15.90
2018,10,21,16,01,15.90
2018,10,21,16,02,15.90
2018,10,21,16,03,15.90
2018,10,21,16,04,15.90
2018,10,21,16,05,15.80
2018,10,21,16,06,15.80
2018,10,21,16,07,15.80
2018,10,21,16,08,15.80
2018,10,21,16,09,15.70
2018,10,21,16,10,15.70
2018,10,21,16,11,15.70
2018,10,21,16,12,15.60
2018,10,21,16,13,15.60
2018,10,21,16,14,15.60
2018,10,21,16,15,15.60
2018,10,21,16,16,15.60
2018,10,21,16,17,15.60
2018,10,21,16,18,15.70
2018,10,21,16,19,15.70
2018,10,21,16,20,15.70
2018,10,21,16,21,15.80
2018,10,21,16,22,15.80
2018,10,21,16,23,15.80
2018,10,21,16,24,15.70
2018,10,21,16,25,15.70
2018,10,21,16,26,15.70
2018,10,21,16,27,15.70
2018,10,21,16,28,15.70
2018,10,21,16,29,15.70
2018,10,21,16,30,15.80
2018,10,21,16,31,15.80
2018,10,21,16,32,15.80
2018,10,21,16,33,15.80
2018,10,21,16,34,15.80
2018,10,21,16,35,15.80
2018,10,21,16,36,15.80
2018,10,21,16,37,15.80
2018,10,21,16,38,15.80
2018,10,21,16,39,15.80
2018,10,21,16,40,15.80
2018,10,21,16,41,15.80
2018,10,21,16,42,15.70
2018,10,21,16,43,15.70
2018,10,21,16,44,15.70
2018,10,21,16,45,15.70
2018,10,21,16,46,15.70
2018,10,21,16,47,15.70
2018,10,21,16,48,15.70
2018,10,21,16,49,15.60
2018,10,21,16,50,15.60
2018,10,21,16,51,15.60
2018,10,21,16,52,15.60
2018,10,21,16,53,15.60
2018,10,21,16,54,15.60
2018,10,21,16,55,15.50
2018,10,21,16,56,15.40
2018,10,21,16,57,15.30
2018,10,21,16,58,15.20
2018,10,21,16,59,15.10
2018,10,21,17,00,15.00
2018,10,21,17,01,14.90
2018,10,21,17,02,14.80
2018,10,21,17,03,14.70
2018,10,21,17,04,14.60
2018,10,21,17,05,14.50
2018,10,21,17,06,14.40
2018,10,21,17,07,14.30
2018,10,21,17,08,14.20
2018,10,21,17,09,14.10
2018,10,21,17,10,14.00
2018,10,21,17,11,13.90
2018,10,21,17,12,13.80
2018,10,21,17,13,13.70
2018,10,21,17,14,13.70
2018,10,21,17,15,13.60
2018,10,21,17,16,13.50
2018,10,21,17,17,13.40
2018,10,21,17,18,13.30
2018,10,21,17,19,13.20
2018,10,21,17,20,13.20
2018,10,21,17,21,13.10
2018,10,21,17,22,13.00
2018,10,21,17,23,13.00
2018,10,21,17,24,12.90
2018,10,21,17,25,12.80
2018,10,21,17,26,12.70
2018,10,21,17,27,12.60
2018,10,21,17,28,12.50
2018,10,21,17,29,12.50
2018,10,21,17,30,12.40
2018,10,21,17,31,12.30
2018,10,21,17,32,12.30
2018,10,21,17,33,12.20
2018,10,21,17,34,12.10
2018,10,21,17,35,12.10
2018,10,21,17,36,12.00
2018,10,21,17,37,11.90
2018,10,21,17,38,11.90
2018,10,21,17,39,11.80
2018,10,21,17,40,11.80
2018,10,21,17,41,11.70
2018,10,21,17,42,11.70
2018,10,21,17,43,11.60
2018,10,21,17,44,11.60
2018,10,21,17,45,11.50
2018,10,21,17,46,11.40